TimeEDT,TemperatureF,Dew PointF,Humidity,Sea Level PressureIn,VisibilityMPH,Wind Direction,Wind SpeedMPH,Gust SpeedMPH,PrecipitationIn,Events,Conditions,WindDirDegrees,DateUTC
12:53 AM,82.9,73.9,74,30.03,10.0,SE,10.4,-,N/A,,Clear,130,2013-06-27 04:53:00
1:53 AM,82.9,73.9,74,30.00,10.0,SE,9.2,-,N/A,,Partly Cloudy,140,2013-06-27 05:53:00
2:53 AM,82.9,75.0,77,30.00,10.0,SE,10.4,-,N/A,,Partly Cloudy,140,2013-06-27 06:53:00
3:53 AM,82.9,73.9,74,29.99,10.0,SE,9.2,-,N/A,,Clear,140,2013-06-27 07:53:00
4:53 AM,82.9,75.0,77,29.98,10.0,SSE,8.1,-,N/A,,Partly Cloudy,150,2013-06-27 08:53:00
5:53 AM,82.9,75.0,77,29.98,10.0,SE,10.4,-,N/A,,Partly Cloudy,140,2013-06-27 09:53:00
6:53 AM,82.9,75.0,77,30.00,10.0,SE,5.8,-,N/A,,Scattered Clouds,140,2013-06-27 10:53:00
7:23 AM,82.4,75.2,79,30.01,8.0,SSE,10.4,-,0.00,Rain,Light Rain,150,2013-06-27 11:23:00
7:30 AM,80.6,75.2,84,30.02,1.8,ESE,17.3,-,0.02,Rain,Heavy Rain,120,2013-06-27 11:30:00
7:35 AM,80.6,73.4,79,30.02,0.8,SSE,6.9,21.9,0.16,Rain,Heavy Rain,150,2013-06-27 11:35:00
7:48 AM,80.6,75.2,84,30.02,1.2,South,5.8,-,0.50,Rain,Heavy Rain,170,2013-06-27 11:48:00
7:53 AM,82.0,75.9,82,30.02,4.0,South,3.5,-,0.54,Rain,Rain,190,2013-06-27 11:53:00
8:14 AM,82.4,75.2,79,30.02,5.0,South,5.8,-,0.01,Rain,Light Rain,170,2013-06-27 12:14:00
8:53 AM,82.9,75.9,79,30.04,5.0,SE,5.8,-,0.01,,Haze,140,2013-06-27 12:53:00
9:53 AM,84.0,75.9,76,30.04,10.0,SSE,4.6,-,0.00,,Partly Cloudy,160,2013-06-27 13:53:00
10:53 AM,84.0,75.9,76,30.04,10.0,SSE,4.6,-,N/A,,Scattered Clouds,160,2013-06-27 14:53:00
11:53 AM,84.9,75.0,72,30.04,10.0,Variable,5.8,-,N/A,,Clear,0,2013-06-27 15:53:00
12:53 PM,84.9,73.0,67,30.04,10.0,SSE,8.1,-,N/A,,Partly Cloudy,150,2013-06-27 16:53:00
1:53 PM,84.9,73.9,69,30.04,10.0,ESE,3.5,-,N/A,,Clear,120,2013-06-27 17:53:00
2:53 PM,86.0,75.0,70,30.01,10.0,East,6.9,-,N/A,,Mostly Cloudy,90,2013-06-27 18:53:00
3:53 PM,89.1,73.0,59,30.01,10.0,ESE,10.4,-,N/A,,Clear,110,2013-06-27 19:53:00
4:53 PM,86.0,73.9,67,29.99,10.0,East,8.1,-,N/A,,Clear,100,2013-06-27 20:53:00
5:53 PM,86.0,75.0,70,29.98,10.0,East,5.8,-,N/A,,Clear,100,2013-06-27 21:53:00
6:53 PM,84.0,75.0,74,29.98,10.0,ESE,4.6,-,N/A,,Clear,120,2013-06-27 22:53:00
7:53 PM,84.0,75.0,74,29.99,10.0,East,4.6,-,N/A,,Clear,80,2013-06-27 23:53:00
8:53 PM,82.9,75.0,77,29.98,10.0,ENE,6.9,-,N/A,,Mostly Cloudy,70,2013-06-28 00:53:00
9:01 PM,82.4,75.2,79,29.98,10.0,East,5.8,-,N/A,,Mostly Cloudy,80,2013-06-28 01:01:00
9:53 PM,82.9,75.9,79,29.98,10.0,East,5.8,-,N/A,,Clear,90,2013-06-28 01:53:00
10:53 PM,84.0,75.0,74,29.99,10.0,SE,8.1,-,N/A,,Clear,130,2013-06-28 02:53:00
11:53 PM,82.9,75.9,79,30.00,10.0,ESE,8.1,-,N/A,,Scattered Clouds,110,2013-06-28 03:53:00